[[{"header":{"parameterUnit":"m.s-1","parameterCategory":1,"la1":30.2991,"la2":30.254,"lo1":-89.0895,"lo2":-89.0444,"dy":0.0017,"dx":0.0017,"nx":28,"ny":28,"refTime":"2025-07-06T21:00:00:Z","depth":0,"parameterNumber":2,"parameterNumberName":"U-component_of_WINDS"},"data":[0,0,0,0,0,0,0,0,0,0,0,0,0,0,0,0,0,0,0,0,0,0,0,0,0,0,0,0,0,0,0,0,0,0,0,0,0,0,0,0,0,0,0,0,0,0,0,0,0,0,0,0,0,0,0,0,0,0,1.3793,1.3795,0,1.3991,1.3994,1.3996,1.4077,1.4077,1.4076,1.4076,1.4281,1.4287,1.4293,0,0,0,0,0,0,0,0,0,0,0,0,0,1.3486,1.3492,1.3793,1.3795,1.3798,1.3991,1.3994,1.3996,1.4077,1.4077,1.4076,1.4075,1.428,1.4286,1.4294,0,0,0,0,0,0,0,0,0,0,0,0,0,1.3646,1.3493,1.3792,1.3861,1.3869,1.399,1.3994,1.3997,1.4077,1.4077,1.4076,1.4075,1.4277,1.4286,1.4295,1.4363,0,0,1.4322,1.4325,0,0,0,0,0,0,0,0,1.3636,1.3657,1.3849,1.3857,1.3866,1.4009,1.3961,1.412,1.4077,1.3998,1.4076,1.4075,1.4191,1.4207,1.4246,1.4372,1.4381,1.4322,1.4328,1.4331,1.4334,0,0,0,0,0,0,0,1.3625,1.3649,1.3871,1.3851,1.3862,1.3883,1.3905,1.3992,1.4096,1.4005,1.4012,1.4034,1.4196,1.4237,1.4251,1.4384,1.4322,1.433,1.4335,1.4339,1.4578,1.4578,0,0,0,0,0,0,1.3603,1.3639,1.3865,1.3877,1.3747,1.3889,1.3914,1.3964,1.4096,1.4115,1.4034,1.4037,1.4223,1.4241,1.4259,1.4348,1.4331,1.434,1.4345,1.4576,1.4578,1.4579,0,0,0,0,0,0,1.3596,1.3622,1.3857,1.376,1.3792,1.3895,1.3951,1.3968,1.4009,1.4117,1.4137,1.4057,1.4223,1.4247,1.4336,1.4356,1.4344,1.4352,1.4575,1.4577,1.4578,1.4526,0,0,0,0,0,0,1.3587,1.3619,1.3645,1.376,1.3796,1.393,1.3952,1.3972,1.4024,1.4029,1.4144,1.4162,1.4224,1.4323,1.4345,1.4368,1.4359,1.4574,1.4576,1.4578,1.4527,1.4526,1.4525,0,0,0,0,0,1.3575,1.3623,1.3646,1.3673,1.3831,1.3931,1.3952,1.4021,1.4025,1.4053,1.4123,1.4159,1.435,1.4331,1.4357,1.4383,1.4573,1.4575,1.4578,1.4527,1.4526,1.4525,0,0,0,0,0,0,1.3508,1.3639,1.3666,1.3752,1.383,1.3944,1.3981,1.4018,1.4096,1.4098,1.4182,1.4207,1.429,1.4346,1.4322,1.4457,1.4465,1.4472,1.4417,1.4417,1.4416,1.4401,1.4366,0,0,0,0,0,1.3503,1.3572,1.3683,1.3749,1.3786,1.3877,1.3923,1.397,1.4054,1.4087,1.4164,1.4244,1.4323,1.4373,1.4452,1.4535,1.4562,1.4566,1.4565,1.4564,1.457,1.4619,1.4622,1.4587,1.4586,1.4586,0,0,1.3494,1.3574,1.3613,1.3737,1.3803,1.3874,1.3904,1.3977,1.4031,1.4099,1.4188,1.4247,1.4343,1.443,1.4472,1.4479,1.4586,1.4567,1.4565,1.4572,1.4622,1.4625,1.4628,1.4588,1.4588,1.4588,0,0,1.3513,1.358,1.3642,1.3707,1.3806,1.3866,1.3881,1.3991,1.4032,1.4123,1.4176,1.4241,1.4375,1.4441,1.4493,1.4538,1.4574,1.4561,1.4557,1.4604,1.4607,1.461,1.4627,1.4632,1.4566,1.4566,1.4566,0,1.3489,1.3597,1.3669,1.374,1.3794,1.3858,1.3922,1.3982,1.4102,1.4138,1.4144,1.4313,1.4382,1.4486,1.4497,1.4536,1.4557,1.4548,1.4601,1.4604,1.4608,1.4625,1.4631,1.4564,1.4564,1.4565,1.4565,0,1.3563,1.3637,1.3676,1.3789,1.3847,1.3914,1.3998,1.4048,1.409,1.415,1.4242,1.4327,1.4424,1.4453,1.4495,1.4563,1.4564,1.4584,1.4594,1.4608,1.4625,1.4633,1.4561,1.4562,1.4562,1.4563,0,0,1.3545,1.3698,1.3711,1.3763,1.3878,1.3937,1.4008,1.4102,1.4144,1.4224,1.4286,1.4398,1.4418,1.4476,1.4526,1.4567,1.4598,1.4583,1.4586,1.4583,1.468,1.4664,1.467,1.4623,1.4625,1.4626,1.4672,0,1.3579,1.3708,1.3775,1.3875,1.3945,1.4008,1.407,1.4147,1.4205,1.4273,1.4338,1.4416,1.4436,1.4471,1.4515,1.4585,1.4619,1.4583,1.4682,1.4685,1.4656,1.4679,1.4663,1.4702,1.4679,1.468,1.4681,0,1.3637,1.3716,1.3823,1.393,1.3962,1.4016,1.4109,1.4173,1.4263,1.4302,1.4367,1.4417,1.4495,1.4498,1.4607,1.4581,1.4626,1.4667,1.467,1.4682,1.4684,1.4692,1.4717,1.4722,1.4693,1.4692,1.4691,0,1.3613,1.3747,1.3828,1.3872,1.3998,1.4035,1.409,1.4179,1.4231,1.4313,1.4348,1.4437,1.4486,1.4554,1.4627,1.4623,1.4729,1.4739,1.4765,1.4763,1.4785,1.4782,1.4816,1.4813,1.4813,1.4813,1.4812,0,1.3645,1.3708,1.382,1.387,1.3942,1.402,1.4091,1.415,1.4229,1.4292,1.4352,1.441,1.4503,1.4573,1.4631,1.4713,1.4734,1.4769,1.4784,1.4764,1.4759,1.4795,1.4794,1.4814,1.4814,1.4814,1.4813,0,1.3631,1.3708,1.3801,1.3914,1.3944,1.3992,1.4089,1.4141,1.4202,1.4282,1.4305,1.4401,1.4487,1.4566,1.4681,1.472,1.4803,1.4821,1.4772,1.478,1.4802,1.4799,1.486,1.4873,1.4859,1.4859,1.486,0,1.3646,1.3696,1.3814,1.3861,1.3914,1.3988,1.4042,1.4122,1.4176,1.4282,1.4321,1.4411,1.4487,1.4622,1.4703,1.4791,1.4812,1.4828,1.4826,1.4805,1.4813,1.4809,1.4815,1.4826,1.4826,1.4826,1.4826,0,1.3665,1.3701,1.3777,1.3866,1.3929,1.4003,1.4079,1.4114,1.4208,1.4266,1.4354,1.4413,1.453,1.4619,1.4716,1.4774,1.4816,1.4826,1.4837,1.4817,1.4787,1.4804,1.4769,1.4824,1.4824,1.4824,1.4824,1.4824,1.3667,1.3714,1.3805,1.3888,1.3953,1.4023,1.4077,1.4145,1.422,1.4321,1.4364,1.4453,1.4543,1.4678,1.4735,1.4807,1.4816,1.4831,1.4836,1.4838,1.4835,1.4775,1.4825,1.4825,1.4826,1.4826,1.4826,0,1.3689,1.3751,1.3826,1.3931,1.3996,1.4029,1.4115,1.4168,1.4245,1.4325,1.4399,1.4501,1.4588,1.4676,1.4768,1.4809,1.483,1.483,1.4828,1.4841,1.4821,1.4803,1.4811,1.4811,1.4811,1.4811,1.4811,1.4811,1.3709,1.3791,1.3838,1.3954,1.4016,1.4104,1.415,1.4215,1.428,1.439,1.4463,1.4519,1.4603,1.4702,1.4783,1.4807,1.4838,1.4833,1.4862,1.4842,1.4842,1.4843,1.4826,1.4839,1.4839,1.4876,1.4876,1.4876]},{"header":{"parameterUnit":"m.s-1","parameterCategory":1,"la1":30.2991,"la2":30.254,"lo1":-89.0895,"lo2":-89.0444,"dy":0.0017,"dx":0.0017,"nx":28,"ny":28,"refTime":"2025-07-06T21:00:00:Z","depth":0,"parameterNumber":3,"parameterNumberName":"V-component_of_WINDS"},"data":[0,0,0,0,0,0,0,0,0,0,0,0,0,0,0,0,0,0,0,0,0,0,0,0,0,0,0,0,0,0,0,0,0,0,0,0,0,0,0,0,0,0,0,0,0,0,0,0,0,0,0,0,0,0,0,0,0,0,4.8056,4.8055,0,4.8038,4.8038,4.8038,4.801,4.801,4.8009,4.8009,4.799,4.799,4.799,0,0,0,0,0,0,0,0,0,0,0,0,0,4.8065,4.8065,4.8056,4.8055,4.8055,4.8038,4.8038,4.8038,4.801,4.8009,4.8009,4.8008,4.799,4.799,4.799,0,0,0,0,0,0,0,0,0,0,0,0,0,4.8056,4.8065,4.8056,4.8039,4.8038,4.8038,4.8038,4.8038,4.801,4.8009,4.8009,4.8008,4.799,4.799,4.799,4.8005,0,0,4.799,4.799,0,0,0,0,0,0,0,0,4.8056,4.8055,4.8042,4.804,4.8039,4.8026,4.8035,4.8027,4.801,4.8021,4.8009,4.8008,4.8003,4.8001,4.8,4.8004,4.8004,4.799,4.799,4.799,4.799,0,0,0,0,0,0,0,4.8057,4.8056,4.8049,4.8042,4.804,4.8033,4.8031,4.8033,4.8016,4.802,4.8018,4.8016,4.8002,4.8,4.7999,4.8003,4.799,4.799,4.799,4.799,4.802,4.8021,0,0,0,0,0,0,4.806,4.8057,4.8049,4.8048,4.8046,4.8033,4.8031,4.8031,4.8016,4.8013,4.8017,4.8015,4.8,4.7999,4.7999,4.8016,4.799,4.799,4.799,4.8019,4.802,4.8021,0,0,0,0,0,0,4.806,4.8059,4.805,4.8052,4.805,4.8034,4.8034,4.8031,4.8029,4.8014,4.801,4.8018,4.8,4.7999,4.8004,4.8015,4.799,4.799,4.8018,4.802,4.8021,4.805,0,0,0,0,0,0,4.8061,4.806,4.8065,4.8052,4.805,4.8056,4.8034,4.8031,4.8029,4.8026,4.8014,4.8012,4.7999,4.8004,4.8004,4.8014,4.799,4.8017,4.8019,4.802,4.8048,4.8052,4.8055,0,0,0,0,0,4.8061,4.8074,4.8066,4.8065,4.8057,4.8056,4.8055,4.8041,4.803,4.8035,4.8026,4.8012,4.8013,4.8005,4.8004,4.8015,4.8017,4.8018,4.802,4.8046,4.8051,4.8055,0,0,0,0,0,0,4.8088,4.8072,4.8063,4.8072,4.8066,4.8052,4.8058,4.8046,4.8043,4.8041,4.8023,4.802,4.8028,4.8022,4.8013,4.8029,4.8013,4.8015,4.8033,4.8037,4.8041,4.8042,4.799,0,0,0,0,0,4.8095,4.8097,4.8082,4.8092,4.8089,4.8074,4.8074,4.8063,4.8056,4.8054,4.8044,4.8038,4.8037,4.8037,4.8035,4.8047,4.8044,4.8054,4.8057,4.806,4.8062,4.8069,4.8073,4.8027,4.8027,4.8027,0,0,4.811,4.8101,4.8103,4.8097,4.8091,4.8093,4.8072,4.8075,4.8076,4.8054,4.8059,4.8052,4.8043,4.8052,4.8056,4.8047,4.8074,4.8063,4.8065,4.8065,4.8071,4.8075,4.8079,4.8028,4.8028,4.8028,0,0,4.8138,4.8131,4.8138,4.8133,4.8125,4.8115,4.8117,4.8105,4.8099,4.8104,4.8087,4.8089,4.8087,4.8082,4.808,4.8106,4.8094,4.8106,4.8126,4.8132,4.8136,4.8139,4.8149,4.8153,4.8108,4.8108,4.8108,0,4.8157,4.8159,4.8144,4.8147,4.8145,4.8126,4.8133,4.8129,4.812,4.8119,4.811,4.8109,4.8102,4.8109,4.8116,4.8114,4.8116,4.8108,4.8137,4.814,4.8142,4.8152,4.8155,4.811,4.811,4.811,4.8109,0,4.8183,4.8185,4.8192,4.8185,4.8183,4.8189,4.8175,4.8175,4.8165,4.8156,4.8162,4.8153,4.8149,4.815,4.814,4.8157,4.8152,4.814,4.8123,4.8149,4.8157,4.816,4.8112,4.8112,4.8111,4.8111,0,0,4.8227,4.8212,4.8215,4.8211,4.8201,4.8202,4.8207,4.8204,4.8205,4.82,4.8204,4.8204,4.8193,4.819,4.8179,4.8185,4.8207,4.8172,4.8172,4.8179,4.8225,4.8235,4.8239,4.8199,4.8199,4.82,4.8226,0,4.8253,4.826,4.8247,4.8258,4.826,4.8241,4.8246,4.824,4.8232,4.8233,4.8224,4.8224,4.8209,4.8208,4.8212,4.8203,4.8216,4.8201,4.8202,4.8202,4.8205,4.8243,4.8253,4.8278,4.8229,4.823,4.823,0,4.8284,4.8281,4.8292,4.8281,4.8282,4.8286,4.8282,4.8283,4.8276,4.827,4.8267,4.8255,4.8259,4.8243,4.8249,4.824,4.8239,4.8235,4.8236,4.8235,4.8218,4.8244,4.8286,4.829,4.8235,4.8235,4.8235,0,4.8315,4.8314,4.832,4.8318,4.8306,4.8309,4.8305,4.8297,4.8296,4.8293,4.8293,4.829,4.8289,4.8287,4.8274,4.8264,4.8282,4.8265,4.8277,4.8278,4.8282,4.8282,4.8325,4.8282,4.8281,4.8281,4.8281,0,4.8345,4.8353,4.8334,4.8339,4.8347,4.8331,4.834,4.8333,4.8327,4.833,4.8314,4.8316,4.8299,4.83,4.829,4.8297,4.8297,4.8292,4.8289,4.8294,4.8294,4.8293,4.8291,4.8282,4.8282,4.8282,4.8282,0,4.8382,4.8369,4.8376,4.8364,4.8361,4.8368,4.8358,4.8361,4.8353,4.8356,4.8356,4.8343,4.8343,4.833,4.8328,4.8322,4.8333,4.8327,4.8335,4.8334,4.8347,4.8346,4.8391,4.8396,4.8349,4.835,4.835,0,4.8402,4.8407,4.8396,4.8397,4.8393,4.8394,4.8394,4.8379,4.8379,4.8372,4.8377,4.8376,4.8375,4.8376,4.8366,4.8365,4.8359,4.8375,4.8359,4.8363,4.836,4.836,4.836,4.8378,4.8379,4.8379,4.838,0,4.8439,4.8433,4.8432,4.843,4.843,4.8427,4.8424,4.8425,4.8409,4.841,4.8411,4.841,4.8408,4.8408,4.8404,4.8399,4.8387,4.8385,4.8388,4.8392,4.8397,4.8395,4.8345,4.8384,4.8383,4.8383,4.8383,4.8383,4.8468,4.8472,4.8465,4.8466,4.8462,4.8459,4.8462,4.8454,4.8454,4.8451,4.8443,4.8445,4.8439,4.8433,4.8429,4.8431,4.8423,4.8427,4.8428,4.843,4.8432,4.8397,4.843,4.843,4.843,4.843,4.843,0,4.8505,4.8499,4.85,4.8496,4.8496,4.8485,4.848,4.8481,4.8484,4.8479,4.8478,4.8479,4.8479,4.8469,4.8468,4.8471,4.8466,4.8471,4.8471,4.847,4.8439,4.8437,4.8476,4.8476,4.8476,4.8476,4.8476,4.8476,4.8524,4.8531,4.8524,4.8529,4.8524,4.8526,4.8524,4.8522,4.8518,4.852,4.852,4.8514,4.8507,4.8506,4.8505,4.8502,4.8503,4.8511,4.8506,4.8477,4.8472,4.8468,4.8466,4.8511,4.8511,4.8537,4.8537,4.8537]}]]